Wind_Speed
13 15 16 18 21 23 25 27 29 30 32 35 36 37 37 38 38 38 38 39 40 41 40 40 40 38 38 38 38 37 37 37 36 36 38 38 39 40 42 43 44 46 48 49 50
20 21 23 24 26 28 30 33 34 36 38 40 42 43 44 44 44 44 44 43 44 45 45 45 46 45 44 44 44 43 41 42 42 43 43 43 43 43 44 45 48 49 53 56 56
27 28 30 32 33 35 38 39 40 41 43 44 45 47 48 49 49 51 51 50 49 49 49 49 50 49 49 48 47 47 47 47 47 47 47 46 46 46 47 47 49 50 53 56 56
30 32 34 35 37 38 40 42 43 44 46 47 48 50 51 52 54 55 55 57 58 56 55 55 54 54 54 54 53 51 50 50 51 51 50 49 50 52 52 52 54 57 58 57 58
33 35 35 35 36 38 40 42 44 46 48 49 52 53 55 58 60 60 60 60 61 62 61 61 61 59 58 58 56 54 52 52 51 52 53 55 55 55 53 56 57 58 59 61 61
37 37 36 38 39 40 41 42 44 45 44 45 48 51 56 59 60 62 62 62 64 65 64 64 65 65 64 62 61 60 57 55 54 54 56 57 58 59 58 60 59 60 62 64 64
42 40 39 40 41 41 40 41 42 42 40 44 46 50 55 51 51 53 54 57 62 66 67 67 66 66 66 66 66 63 61 60 59 57 58 60 60 60 58 58 58 60 62 62 63
45 44 43 43 43 41 41 40 40 39 41 43 44 48 44 45 49 51 51 50 50 55 63 69 70 69 68 67 67 66 64 63 62 61 60 62 62 58 57 58 60 60 61 63 62
47 46 48 46 45 44 43 42 39 39 40 43 42 40 39 44 47 45 44 44 46 50 53 56 59 61 65 68 68 66 65 65 63 61 60 62 67 60 57 60 62 61 61 61 61
51 49 48 48 46 46 46 44 44 42 42 42 40 37 38 42 41 39 40 38 37 41 46 53 54 55 56 61 65 67 66 65 63 62 62 62 71 62 59 60 61 60 59 60 63
54 53 53 50 49 50 49 46 48 44 42 43 38 38 35 40 38 36 34 33 34 35 38 43 49 54 54 53 56 62 64 64 64 63 63 60 67 62 58 58 58 60 60 62 65
60 57 56 54 53 52 52 48 48 44 43 42 39 38 34 37 35 32 32 29 27 28 33 37 42 44 50 50 49 47 52 58 61 61 62 61 60 59 59 59 60 61 61 64 67
64 63 60 57 56 54 54 51 47 43 39 40 40 37 33 33 33 30 30 28 25 22 25 29 32 34 38 43 43 43 45 46 47 48 50 55 56 57 59 61 61 61 63 66 68
69 67 65 61 58 55 53 53 47 42 38 36 38 38 33 30 30 28 27 27 23 21 20 20 23 25 29 34 38 37 38 38 40 43 46 51 51 57 60 61 62 64 66 67 69
74 71 68 65 62 57 51 52 44 40 34 35 38 36 33 30 28 27 25 24 23 20 18 18 19 22 26 28 30 31 33 35 36 39 42 45 46 53 58 61 63 64 65 69 73
77 74 70 65 63 56 50 53 41 41 39 37 36 36 33 32 30 27 24 22 22 21 19 17 19 23 26 29 32 33 34 36 37 37 39 44 48 57 59 60 61 63 68 72 77
79 75 72 69 66 58 53 53 44 42 41 39 36 36 35 32 32 30 26 24 21 20 21 21 20 20 22 26 31 33 34 33 35 40 42 46 48 53 56 61 63 68 73 78 83
81 80 76 73 66 58 51 53 46 46 43 41 40 39 37 33 32 34 32 29 26 25 22 20 21 21 22 25 29 31 34 34 34 38 42 46 52 56 62 64 67 73 78 84 88
78 79 78 74 67 63 52 52 48 49 47 43 43 40 38 35 34 34 35 35 33 32 31 30 31 29 27 30 33 36 37 39 39 41 44 49 57 62 67 67 73 78 85 89 96
87 77 77 72 69 62 54 55 54 53 49 48 47 45 43 39 38 36 36 37 38 38 37 37 38 39 36 38 40 43 44 46 49 48 49 51 59 71 70 76 80 87 90 95 100
97 81 80 76 71 63 59 58 60 60 56 53 52 49 46 44 43 41 39 39 38 37 38 39 41 42 42 44 45 47 50 52 54 56 59 55 64 76 79 83 88 91 95 97 95
99 91 82 80 75 66 63 62 66 65 62 59 58 58 56 52 52 49 48 45 44 43 43 44 44 45 45 48 51 54 56 59 61 66 71 70 74 81 85 87 94 95 98 96 92
103 97 91 88 77 68 68 67 69 66 64 62 60 61 60 60 59 56 53 52 50 48 50 51 52 53 54 56 58 62 66 70 70 75 78 80 84 92 88 96 97 96 94 91 91
109 101 96 88 78 73 72 71 70 71 66 64 63 61 61 62 59 57 57 54 54 53 55 57 58 59 61 63 65 67 72 76 78 82 82 90 86 97 95 94 95 95 93 91 90
115 103 95 93 83 80 80 74 73 72 72 69 65 66 61 61 60 58 58 61 59 58 58 60 63 65 69 70 70 71 78 80 84 87 86 88 89 90 91 90 90 90 88 87 88
114 104 96 93 91 88 85 75 78 75 74 71 68 67 65 64 59 61 61 62 59 59 59 61 62 62 64 72 69 69 76 80 82 86 86 87 88 90 90 91 90 90 87 87 87
114 106 98 94 96 96 89 83 84 81 75 73 72 70 70 69 63 64 66 64 66 64 63 64 63 63 65 72 73 74 80 82 84 87 88 88 91 93 94 91 90 89 85 85 84
Wind_Direction
242 246 248 253 260 264 266 266 265 265 267 271 271 270 269 268 264 263 262 257 254 254 254 253 253 253 255 258 260 262 263 263 263 264 263 264 264 264 265 266 266 267 266 263 260
252 253 256 258 261 263 265 268 268 266 267 268 267 267 266 266 265 264 262 260 259 257 256 254 254 255 255 256 259 260 260 261 263 265 265 265 265 267 268 267 266 265 266 265 265
255 258 262 265 268 269 271 273 273 272 271 270 270 270 268 265 265 264 263 260 258 257 254 255 256 256 257 259 260 261 262 263 264 265 264 266 269 271 271 271 270 270 268 268 266
263 266 269 271 272 273 274 276 277 277 278 278 278 276 273 270 268 266 263 261 259 257 256 254 253 254 255 257 259 259 260 262 263 263 264 267 269 270 270 271 273 272 269 267 269
268 270 273 276 279 281 281 281 281 281 281 281 281 280 279 276 273 270 266 263 259 258 257 253 254 252 252 254 255 257 258 259 261 263 264 264 266 268 269 270 273 272 270 268 268
272 273 275 279 282 284 285 285 287 286 285 284 285 286 284 283 279 275 268 263 261 258 255 253 253 253 253 253 253 254 256 258 260 262 264 266 266 267 270 272 273 274 270 268 268
271 274 275 279 282 286 290 292 291 288 285 285 291 291 291 287 284 281 276 267 260 258 257 256 254 253 252 253 253 254 255 257 259 261 264 266 267 269 269 271 273 272 268 266 266
270 272 273 276 280 286 292 294 292 289 286 290 299 299 292 289 290 287 282 274 267 259 255 254 255 255 253 251 252 253 255 257 258 260 263 266 266 268 270 272 271 272 270 266 266
268 271 272 277 280 283 290 293 297 293 291 296 300 302 292 295 301 296 289 279 270 262 255 253 253 252 251 249 250 252 253 255 257 260 262 265 267 267 270 271 272 272 270 267 266
266 269 272 275 277 281 287 288 293 294 293 300 304 301 294 301 303 300 295 286 276 265 258 251 250 250 251 249 250 251 253 255 257 259 260 263 268 269 269 267 269 273 270 268 270
264 268 272 274 276 278 283 287 293 291 295 299 302 303 297 305 311 308 304 292 281 270 260 254 250 246 248 250 253 253 253 256 257 259 261 262 268 271 268 267 270 271 270 271 272
263 266 269 273 276 279 281 285 292 290 298 298 299 304 298 306 316 313 311 303 291 278 264 257 253 250 247 247 253 256 257 258 260 260 261 261 264 268 267 269 272 272 272 274 278
260 263 266 270 273 278 281 283 288 286 294 297 294 303 296 304 317 311 315 316 308 293 273 263 257 251 246 244 249 253 258 262 263 263 260 260 263 266 267 271 274 274 275 278 280
258 262 265 267 270 273 278 281 282 284 291 296 293 303 294 298 312 317 310 318 317 305 286 270 257 248 242 242 250 256 261 265 267 267 265 262 263 268 270 272 274 277 280 281 280
256 259 262 264 268 271 275 275 275 278 284 295 294 299 297 292 302 314 317 313 317 313 294 277 256 247 248 252 256 258 260 266 270 270 269 268 265 269 272 276 280 282 283 284 285
253 257 259 261 266 268 268 270 269 272 277 285 296 296 300 292 290 300 311 313 308 309 307 289 271 262 258 259 258 262 266 270 272 270 269 271 274 274 278 280 282 285 285 285 285
249 252 256 260 263 263 264 265 266 269 273 280 287 293 296 296 285 288 296 302 308 303 300 296 290 279 271 269 269 272 273 273 276 276 276 277 278 279 282 283 286 285 285 287 289
245 248 252 256 257 260 260 262 265 265 269 272 280 287 292 292 291 282 283 289 294 297 298 294 293 286 283 280 280 278 279 279 277 279 280 281 280 282 282 283 284 285 288 290 292
242 245 248 250 254 257 254 257 263 263 264 269 275 282 287 291 289 287 280 280 282 285 288 288 286 283 281 278 277 279 279 280 278 277 276 279 282 284 281 287 289 291 291 294 295
240 240 243 246 250 251 248 254 258 262 261 266 270 275 281 284 288 284 284 284 283 283 284 283 282 282 283 282 282 281 282 282 282 280 279 280 283 282 288 288 292 291 294 295 298
239 236 242 243 246 246 248 250 253 258 262 264 267 272 274 278 283 282 285 283 284 287 286 284 284 284 285 283 282 283 283 284 285 286 284 286 284 284 288 291 293 295 297 300 301
238 237 237 238 240 243 248 245 250 255 261 262 266 271 275 274 279 280 282 281 280 281 284 283 284 286 287 288 287 286 285 285 286 287 287 291 288 292 293 296 296 299 301 302 303
235 235 234 237 238 240 246 247 247 252 257 262 264 268 271 274 277 280 278 278 276 278 281 282 284 284 284 284 285 287 289 289 291 291 293 294 295 295 299 298 301 302 305 306 306
233 233 236 237 236 238 242 245 247 250 256 260 264 266 269 273 272 275 277 277 276 276 277 279 281 283 284 284 286 289 290 291 292 292 294 294 297 298 302 303 304 306 308 308 307
231 232 232 235 235 237 241 243 247 249 255 258 261 266 271 273 272 275 275 277 277 279 279 279 282 284 285 285 286 288 288 289 291 293 296 298 301 302 304 306 307 307 307 308 308
231 230 231 234 233 236 240 242 245 247 251 255 260 264 268 271 274 276 276 280 282 282 285 285 283 287 292 289 291 294 296 296 298 299 300 302 305 306 308 311 312 310 310 310 309
230 227 232 231 235 239 240 239 242 245 249 253 257 263 266 269 272 273 276 279 282 286 288 289 290 293 296 298 301 302 302 302 303 306 307 309 308 310 313 314 312 310 309 307 308
Height
10739 10740 10741 10741 10741 10742 10742 10742 10742 10742 10742 10742 10742 10741 10741 10740 10740 10740 10741 10741 10741 10742 10743 10743 10743 10744 10745 10746 10747 10749 10750 10751 10752 10753 10754 10755 10755 10756 10757 10758 10759 10758 10757 10758 10758
10736 10737 10737 10737 10737 10738 10737 10737 10737 10736 10735 10734 10733 10732 10732 10731 10731 10731 10731 10732 10732 10733 10733 10733 10734 10735 10736 10737 10738 10740 10741 10743 10743 10744 10744 10745 10746 10747 10749 10750 10749 10749 10747 10745 10747
10731 10732 10732 10732 10731 10731 10731 10730 10729 10728 10726 10725 10723 10722 10721 10720 10720 10719 10720 10720 10721 10721 10722 10723 10723 10725 10726 10727 10728 10730 10732 10732 10733 10734 10734 10736 10736 10737 10738 10740 10738 10738 10736 10734 10737
10726 10726 10725 10725 10725 10724 10723 10722 10720 10719 10717 10715 10713 10711 10709 10708 10707 10706 10708 10707 10707 10708 10709 10710 10711 10713 10714 10716 10718 10720 10721 10722 10722 10723 10725 10726 10726 10726 10728 10727 10728 10725 10724 10724 10723
10718 10718 10718 10717 10717 10716 10715 10713 10711 10709 10707 10704 10701 10699 10697 10695 10692 10691 10691 10692 10692 10693 10695 10696 10698 10699 10702 10703 10706 10708 10710 10711 10712 10713 10714 10714 10716 10715 10718 10716 10716 10714 10710 10710 10710
10710 10710 10710 10709 10708 10707 10705 10704 10702 10699 10696 10693 10690 10687 10683 10680 10676 10673 10673 10675 10675 10675 10678 10681 10683 10685 10688 10690 10693 10696 10698 10700 10702 10702 10702 10701 10703 10704 10707 10705 10704 10700 10698 10696 10697
10700 10700 10700 10699 10699 10698 10696 10694 10692 10689 10686 10683 10681 10676 10670 10665 10660 10655 10653 10655 10657 10658 10661 10663 10667 10670 10673 10677 10679 10682 10685 10687 10690 10691 10690 10687 10689 10692 10693 10694 10693 10687 10682 10683 10684
10690 10690 10690 10690 10689 10687 10686 10684 10682 10679 10676 10674 10670 10664 10659 10654 10649 10643 10638 10637 10638 10639 10642 10646 10649 10653 10657 10662 10665 10668 10672 10675 10677 10679 10679 10675 10675 10681 10681 10682 10676 10673 10671 10670 10672
10679 10679 10679 10680 10679 10678 10677 10675 10673 10670 10667 10664 10660 10655 10650 10645 10638 10631 10626 10624 10623 10624 10626 10629 10632 10636 10641 10646 10651 10655 10659 10662 10666 10668 10667 10664 10657 10670 10672 10666 10661 10659 10657 10656 10656
10667 10668 10668 10668 10668 10668 10667 10666 10664 10661 10658 10655 10651 10646 10643 10637 10630 10623 10616 10612 10611 10611 10612 10615 10618 10622 10627 10631 10636 10641 10646 10649 10653 10655 10655 10655 10640 10656 10657 10652 10647 10645 10643 10640 10638
10655 10655 10656 10657 10657 10657 10657 10656 10655 10652 10649 10646 10643 10637 10634 10630 10622 10615 10609 10604 10601 10600 10600 10602 10605 10610 10615 10620 10624 10628 10633 10636 10640 10642 10641 10643 10630 10637 10639 10638 10635 10631 10628 10626 10624
10640 10642 10644 10645 10646 10646 10646 10646 10644 10643 10639 10637 10634 10630 10626 10622 10616 10610 10605 10599 10594 10592 10591 10592 10595 10600 10605 10610 10614 10618 10620 10624 10627 10629 10628 10628 10625 10624 10622 10621 10619 10617 10615 10611 10608
10625 10627 10630 10633 10634 10635 10635 10636 10635 10634 10633 10629 10625 10623 10619 10616 10612 10606 10601 10595 10589 10586 10585 10586 10588 10592 10596 10600 10605 10610 10610 10613 10613 10616 10617 10615 10615 10613 10609 10606 10604 10601 10600 10596 10591
10610 10613 10615 10619 10621 10623 10624 10625 10625 10624 10624 10621 10617 10615 10612 10610 10606 10601 10597 10593 10589 10584 10582 10582 10583 10587 10590 10594 10598 10602 10602 10603 10605 10605 10605 10604 10606 10599 10594 10592 10589 10588 10584 10579 10573
10593 10597 10601 10604 10607 10610 10612 10613 10615 10615 10616 10614 10611 10608 10605 10603 10601 10596 10592 10590 10588 10585 10581 10580 10581 10584 10586 10589 10591 10593 10595 10595 10596 10595 10593 10592 10595 10585 10580 10579 10577 10574 10569 10563 10557
10575 10580 10586 10589 10593 10597 10599 10601 10605 10605 10606 10605 10603 10601 10598 10596 10595 10592 10589 10586 10583 10582 10581 10580 10580 10581 10583 10583 10584 10586 10587 10587 10587 10587 10585 10581 10579 10571 10569 10565 10562 10561 10554 10547 10539
10557 10562 10569 10575 10579 10583 10586 10588 10594 10594 10596 10596 10594 10593 10591 10589 10587 10586 10585 10582 10579 10577 10577 10577 10577 10578 10579 10579 10578 10578 10578 10580 10579 10576 10575 10571 10567 10560 10557 10550 10547 10541 10533 10524 10517
10537 10545 10551 10558 10563 10569 10573 10577 10582 10582 10584 10584 10584 10583 10582 10581 10579 10579 10579 10578 10576 10573 10572 10572 10571 10572 10572 10571 10569 10569 10569 10570 10571 10567 10564 10560 10553 10548 10539 10536 10533 10526 10516 10504 10495
10515 10526 10532 10541 10547 10553 10559 10566 10568 10568 10571 10573 10573 10573 10572 10572 10571 10571 10571 10571 10570 10568 10566 10565 10563 10563 10563 10562 10560 10558 10558 10558 10558 10557 10555 10549 10538 10531 10523 10523 10514 10505 10492 10484 10472
10495 10505 10514 10523 10529 10537 10546 10551 10553 10555 10559 10561 10561 10563 10562 10562 10562 10562 10561 10561 10561 10559 10557 10556 10555 10553 10554 10551 10549 10547 10546 10545 10542 10544 10542 10538 10527 10507 10509 10499 10496 10482 10474 10461 10446
10472 10487 10495 10502 10510 10522 10533 10534 10537 10541 10544 10548 10549 10551 10552 10552 10552 10552 10552 10552 10550 10550 10548 10546 10544 10542 10543 10540 10537 10535 10533 10530 10527 10524 10521 10526 10515 10495 10492 10485 10472 10461 10448 10436 10420
10451 10468 10474 10482 10493 10509 10514 10517 10521 10526 10530 10534 10536 10538 10539 10540 10540 10540 10540 10540 10540 10540 10537 10536 10534 10532 10532 10528 10525 10520 10517 10513 10512 10507 10498 10501 10496 10480 10471 10464 10446 10437 10424 10409 10392
10425 10445 10451 10464 10482 10492 10495 10501 10506 10511 10515 10520 10522 10524 10525 10527 10527 10526 10527 10527 10527 10528 10525 10523 10520 10519 10517 10515 10512 10507 10502 10495 10495 10486 10482 10478 10469 10450 10451 10435 10422 10410 10396 10380 10366
10401 10419 10435 10449 10468 10472 10476 10482 10491 10495 10500 10504 10507 10509 10510 10512 10513 10514 10512 10512 10513 10515 10513 10511 10507 10505 10502 10500 10497 10492 10484 10477 10474 10467 10468 10449 10455 10426 10420 10410 10395 10380 10368 10357 10342
10375 10402 10416 10434 10447 10449 10452 10470 10474 10478 10482 10487 10492 10493 10498 10497 10498 10501 10499 10497 10498 10499 10498 10497 10493 10492 10484 10482 10483 10479 10466 10462 10455 10446 10444 10432 10423 10413 10396 10387 10373 10361 10349 10336 10321
10354 10384 10397 10413 10421 10427 10436 10457 10454 10458 10463 10472 10476 10478 10482 10478 10488 10484 10483 10483 10483 10483 10483 10481 10480 10479 10472 10462 10467 10462 10448 10439 10434 10423 10420 10411 10398 10387 10377 10365 10348 10333 10327 10314 10302
10335 10359 10374 10390 10400 10409 10428 10429 10430 10438 10447 10453 10456 10463 10463 10463 10472 10468 10467 10467 10467 10466 10467 10465 10463 10464 10462 10449 10448 10444 10433 10424 10417 10405 10397 10389 10374 10363 10353 10343 10328 10317 10309 10298 10288